Address 0x55dcad916750c19c4ec69d65ff0317767b36ce90 21

 
Txn Hash Method
Block
From
To
Value [Txn Fee]
0xb68eb876f4e88a05dffca6357742a8711c45633b774367aa9db2378f724c8a400x06bb54022124148402024-05-18 4:50:401 hr 20 mins ago0x55dcad916750c19c4ec69d65ff0317767b36ce90OUT 0xad3b67bca8935cb510c8d18bd45f0b94f54a968f0 ETH0.00000665 0.01
0x7dcbc1af4e941d788e9647ce5294eff115be76cddb5a716b4a29f2c7a92b4c690x06bb54022124123442024-05-18 4:40:021 hr 31 mins ago0x55dcad916750c19c4ec69d65ff0317767b36ce90OUT 0xad3b67bca8935cb510c8d18bd45f0b94f54a968f0 ETH0.0000049 0.01
0x63f1798ee6275dd8cc29c9ad3b6f94bd30e1f2c83329d9642baa8a1cb19fc4170x06bb54022123961212024-05-18 3:30:282 hrs 40 mins ago0x55dcad916750c19c4ec69d65ff0317767b36ce90OUT 0xad3b67bca8935cb510c8d18bd45f0b94f54a968f0 ETH0.00000556 0.01
0x10f511ab65b2e5450e12b3d4976fcf045c890017a94fefb059a64b60f8e1168b0x06bb54022123698462024-05-18 1:39:004 hrs 32 mins ago0x55dcad916750c19c4ec69d65ff0317767b36ce90OUT 0xad3b67bca8935cb510c8d18bd45f0b94f54a968f0 ETH0.0000101 0.01
0x38826e1f9c5a7c339cc1b98debdb669ff17e4748fa604abbaccfb8830a8585d60x06bb54022123335892024-05-17 23:04:407 hrs 6 mins ago0x55dcad916750c19c4ec69d65ff0317767b36ce90OUT 0xad3b67bca8935cb510c8d18bd45f0b94f54a968f0 ETH0.00000533 0.01
0x79ed9d0dcaa2bf23da605279f1f0079a89a374f8b4c300fa16c5769cd42f479f0x06bb54022122758442024-05-17 19:01:0211 hrs 10 mins ago0x55dcad916750c19c4ec69d65ff0317767b36ce90OUT 0xad3b67bca8935cb510c8d18bd45f0b94f54a968f0 ETH0.00000509 0.01
0xe14c61967e47c9f457c95447a7621fdcd5c13347a64973205d6c4e513c89762c0x06bb54022122683132024-05-17 18:29:0811 hrs 42 mins ago0x55dcad916750c19c4ec69d65ff0317767b36ce90OUT 0xad3b67bca8935cb510c8d18bd45f0b94f54a968f0 ETH0.0000088 0.01
0x767905f0f50d6e82c3ff7fe32eb783eed2a6d9376d5066d8913e45ef3fe0ec520x06bb54022122631342024-05-17 18:06:0712 hrs 5 mins ago0x55dcad916750c19c4ec69d65ff0317767b36ce90OUT 0xad3b67bca8935cb510c8d18bd45f0b94f54a968f0 ETH0.00000961 0.018665
0x687cf490284c4b09ac5481666f253c808de7a18c7f421e8ff394c2833afb3bda0x06bb54022122195232024-05-17 14:49:4915 hrs 21 mins ago0x55dcad916750c19c4ec69d65ff0317767b36ce90OUT 0xad3b67bca8935cb510c8d18bd45f0b94f54a968f0 ETH0.00000549 0.010294
0xbbbc9735d18f4230b51f8a67ff6349781e76f6d6f0b45b343c1ceea29e3450160x06bb54022122046482024-05-17 13:41:4316 hrs 29 mins ago0x55dcad916750c19c4ec69d65ff0317767b36ce90OUT 0xad3b67bca8935cb510c8d18bd45f0b94f54a968f0 ETH0.00000406 0.011243
0x56bc6bb0bd1ef928a63276482207c8adc5ee41ae484db916280929202fb72ec40x06bb54022121689292024-05-17 11:08:5119 hrs 2 mins ago0x55dcad916750c19c4ec69d65ff0317767b36ce90OUT 0xad3b67bca8935cb510c8d18bd45f0b94f54a968f0 ETH0.00000375 0.01
0x22a08c2f49b6e8686fb2b2d9ba251bc74fdfd4fbb027fb87cecfbc91b35a5ce90x06bb54022121399162024-05-17 9:05:2921 hrs 5 mins ago0x55dcad916750c19c4ec69d65ff0317767b36ce90OUT 0xad3b67bca8935cb510c8d18bd45f0b94f54a968f0 ETH0.00001085 0.01
0x6a2ebe1438b44fbf263703d7bf443b49af045f0a99e4839b817284feac8e468b0x06bb54022121392462024-05-17 9:02:3921 hrs 8 mins ago0x55dcad916750c19c4ec69d65ff0317767b36ce90OUT 0xad3b67bca8935cb510c8d18bd45f0b94f54a968f0 ETH0.00001349 0.01
0x4ce48c3c5c25bbdb6f419c3f526db8e50fc30790d2b82e5de4ae1dfd164d9cd00x06bb54022120695102024-05-17 4:03:321 day 2 hrs ago0x55dcad916750c19c4ec69d65ff0317767b36ce90OUT 0xad3b67bca8935cb510c8d18bd45f0b94f54a968f0 ETH0.00000265 0.01
0x9847a40eeb3ba88e6e0380d1c42c0a630a22b5cb7e1dfb720a5f4d03e215d6800x06bb54022120507622024-05-17 2:43:481 day 3 hrs ago0x55dcad916750c19c4ec69d65ff0317767b36ce90OUT 0xad3b67bca8935cb510c8d18bd45f0b94f54a968f0 ETH0.00000383 0.01
0x12b7ba70a5a1c100f7394dcc6de6a23f202563c7c33792d816c151dd075c2bfc0x06bb54022120395782024-05-17 1:56:431 day 4 hrs ago0x55dcad916750c19c4ec69d65ff0317767b36ce90OUT 0xad3b67bca8935cb510c8d18bd45f0b94f54a968f0 ETH0.00000283 0.01
0xbeec2eef7ee36f8a77394d177f271c313331398d6baa491f740ecf0c6b68340f0x06bb54022120300002024-05-17 1:16:141 day 4 hrs ago0x55dcad916750c19c4ec69d65ff0317767b36ce90OUT 0xad3b67bca8935cb510c8d18bd45f0b94f54a968f0 ETH0.00000311 0.01
0xd4cf0a32e841880c5a3775bb66173e5093340f33636e7fa8507e600aae1804770x06bb54022120235542024-05-17 0:48:571 day 5 hrs ago0x55dcad916750c19c4ec69d65ff0317767b36ce90OUT 0xad3b67bca8935cb510c8d18bd45f0b94f54a968f0 ETH0.00000444 0.01
0xb36d61ccf299795bcb2ba8f58acdd1f21d2256a382e123df257f97e20935e4aa0x06bb54022120142082024-05-17 0:09:441 day 6 hrs ago0x55dcad916750c19c4ec69d65ff0317767b36ce90OUT 0xad3b67bca8935cb510c8d18bd45f0b94f54a968f0 ETH0.00000586 0.01
0xbf981169726274ce283a62f95bf457326203b1669e4df994a03cb3a39d481b760x06bb54022120138202024-05-17 0:08:071 day 6 hrs ago0x55dcad916750c19c4ec69d65ff0317767b36ce90OUT 0xad3b67bca8935cb510c8d18bd45f0b94f54a968f0 ETH0.00000358 0.01
0x6478babfac6164bd812cfbd9a22a08dc85ae33869ccbc722c490407b025a92e00x06bb54022120119782024-05-17 0:00:221 day 6 hrs ago0x55dcad916750c19c4ec69d65ff0317767b36ce90OUT 0xad3b67bca8935cb510c8d18bd45f0b94f54a968f0 ETH0.0000041 0.01
0x290c091cacc0746764b02fa0682054babcf4072f789624fc765b8ceba46f16380x06bb54022119673992024-05-16 20:52:041 day 9 hrs ago0x55dcad916750c19c4ec69d65ff0317767b36ce90OUT 0xad3b67bca8935cb510c8d18bd45f0b94f54a968f0 ETH0.00000298 0.01
0x22a47343b7c4ba1d6c19bbb52672d665310934806b2ac14b4ce4d063886157a80x06bb54022119575212024-05-16 20:10:441 day 10 hrs ago0x55dcad916750c19c4ec69d65ff0317767b36ce90OUT 0xad3b67bca8935cb510c8d18bd45f0b94f54a968f0 ETH0.00000482 0.01
0x54a48470f1b3ead4c41f62d9418532446723b4dc0d7c8d0374dbce07710f33db0x06bb54022119532122024-05-16 19:52:381 day 10 hrs ago0x55dcad916750c19c4ec69d65ff0317767b36ce90OUT 0xad3b67bca8935cb510c8d18bd45f0b94f54a968f0 ETH0.00000723 0.01
0x96e0477b29820d9081022fe89bf6609d145bc5a36a981be0b89061455303cdc90x06bb54022119443492024-05-16 19:15:091 day 10 hrs ago0x55dcad916750c19c4ec69d65ff0317767b36ce90OUT 0xad3b67bca8935cb510c8d18bd45f0b94f54a968f0 ETH0.00000345 0.01
[ Download CSV Export 
Parent Txn Hash Block From To Value
Loading

Contract Name:
0 ETH

Compiler Version
0

Optimization Enabled:
0 ETH

Other Settings:
-NA-
Block Transaction Gas Used Reward
Age Block Fee Address BC Fee Address Voting Power Jailed Incoming
Block Uncle Number Difficulty Gas Used Reward
Loading
Make sure to use the "Vote Down" button for any spammy posts, and the "Vote Up" for interesting conversations.